Regional Weather Roundup
Issued by NWS

Home | Current Version | Previous Version | Graphics & Text | Print | Product List | Glossary On
Versions: 1 2 3 4 5 6 7 8 9 10 11 12 13 14 15 16 17 18 19 20 21 22 23 24 25 26 27 28 29 30 31 32 33 34 35 36 37 38 39 40 41 42 43 44 45 46 47 48 49 50
000
ASUS43 KIND 061359
RWRIN

WEATHER ROUNDUP FOR INDIANA
NATIONAL WEATHER SERVICE INDIANAPOLIS IN
1000 AM EDT WED MAY 06 2015

NOTE: "FAIR" INDICATES FEW OR NO CLOUDS BELOW 12,000 FEET WITH NO
SIGNIFICANT WEATHER AND/OR OBSTRUCTIONS TO VISIBILITY.

* - STATION DOES NOT REPORT WEATHER SUCH AS PRECIPITATION OR FOG.

+ - STATION NOT QUALITY CONTROLLED BY THE NATIONAL WEATHER SERVICE.
    USE DATA WITH CAUTION...ESPECIALLY DEWPOINT AND RELATIVE
    HUMIDITY OBSERVATIONS.

INZ001>003-010>013-019-020-061500-
NORTHWEST INDIANA

CITY           SKY/WX    TMP DP  RH WIND       PRES   REMARKS
GARY /AIRPORT/ CLOUDY    59 N/A N/A SE8       30.19S FOG
VALPARAISO     CLOUDY    57  55  94 E8        30.21S FOG

$$

LMZ046-743>745-061500-
SOUTHERN LAKE MICHIGAN

STATION/POSITION TIME  TEMP    WIND        PRES    WAVE
                       AIR SEA DIR/SP/G            HT
                 (UTC) (F)     (DEG/KT/KT) (MB)    (FT)
BURNS HARBOR     1300   60     180/  8/ 10 1022.7F
MICHIGAN CITY    1300   57     120/  6/  8   N/A
5NW MICH CITY    1300   55 51  150/  6/  8   N/A     1

$$

INZ004-005-014>016-021>024-061500-
NORTH CENTRAL INDIANA

CITY           SKY/WX    TMP DP  RH WIND       PRES   REMARKS
ELKHART        CLOUDY    57  55  94 E7        30.23S FOG
GOSHEN         CLOUDY    57  54  89 SE8       30.22S FOG
SOUTH BEND     CLOUDY    59  54  83 SE9       30.22S HAZE

$$

INZ006>009-017-018-025>027-061500-
NORTHEAST INDIANA

CITY           SKY/WX    TMP DP  RH WIND       PRES   REMARKS
ANGOLA *+      CLOUDY    55  43  62 SE7       30.23F
FORT WAYNE     CLOUDY    55  54  96 E7        30.24S FOG

$$

INZ028-029-035-036-043>045-051>053-061500-
WEST CENTRAL INDIANA

CITY           SKY/WX    TMP DP  RH WIND       PRES   REMARKS
GREENCASTLE +  SUNNY     72  52  49 W3        30.22R
LAFAYETTE      PTSUNNY   66  60  81 CALM      30.19S HAZE
TERRE HAUTE    SUNNY     74  57  55 W6        30.20S

$$

INZ030>032-037>040-046>048-054>057-064-065-061500-
CENTRAL INDIANA

CITY           SKY/WX    TMP DP  RH WIND       PRES   REMARKS
COLUMBUS       SUNNY     68  55  64 CALM      30.22S
GREENWOOD *+   SUNNY     75  54  46 CALM      30.22S
INDIANAPOLIS   MOSUNNY   74  56  53 VRB3      30.20S
-EAGLE CREEK   SUNNY     74  56  53 CALM      30.20F
KOKOMO *+      MOSUNNY   63  57  82 SE5       30.22R
MT COMFORT *+  SUNNY     73  45  35 W3        30.22S
SHELBYVILLE    SUNNY     76  56  49 W5        30.21S

$$

INZ033-034-041-042-049-050-058-059-061500-
EAST CENTRAL INDIANA

CITY           SKY/WX    TMP DP  RH WIND       PRES   REMARKS
MUNCIE         PTSUNNY   72  60  66 VRB3      30.22R

$$

INZ060-061-067>069-081>083-085>088-061500-
SOUTHWEST INDIANA

CITY           SKY/WX    TMP DP  RH WIND       PRES   REMARKS
EVANSVILLE     SUNNY     73  58  59 CALM      30.21R
HUNTINGBURG *+ SUNNY     73  57  56 CALM      30.21S

$$

INZ062-063-066-070>080-084-089>092-061500-
SOUTH CENTRAL AND SOUTHEAST INDIANA

CITY           SKY/WX    TMP DP  RH WIND       PRES   REMARKS
BLOOMINGTON    SUNNY     76  53  44 W8        30.21S
MADISON *+     SUNNY     73  54  49 CALM      30.25S
SEYMOUR +      SUNNY     72  57  60 CALM      30.22S

$$



USA.gov is the U.S. government's official web portal to all federal, state and local government web resources and services.